This demonstration page uses our WeatherBlox Daily Observations layout. Learn more.

Left ArrowRight Arrow

Hourly Observations for November 8, 2016

Temp ( °F °C ) Dew Point ( °F °C ) Humidity (%) Winds ( mph kmh ) Pressure ( in mb ) Visibility ( mi km ) Precip ( " mm )
12:51 am 00:51 Clear 59 15 45 7.2 60 60 SE 8 13 30.12 1020 10 16.0934 N/A
1:51 am 01:51 Clear 61 16.1 44 6.7 54 54 SE 8 13 30.12 1020 10 16.0934 N/A
2:51 am 02:51 Clear 59 15 44 6.7 58 58 ESE 8 13 30.12 1020 10 16.0934 N/A
3:51 am 03:51 Clear 56 13.3 43 6.1 62 62 SE 8 13 30.13 1020 10 16.0934 N/A
4:51 am 04:51 Clear 54 12.2 43 6.1 67 67 ESE 9 15 30.16 1021 10 16.0934 N/A
5:51 am 05:51 Clear 54 12.2 42 5.6 64 64 ESE 8 13 30.19 1022 10 16.0934 N/A
6:51 am 06:51 Sunny 55 12.8 41 5 59 59 ESE 9 15 30.22 1023 10 16.0934 N/A
7:34 am 07:34 Mostly Sunny 59 15 42 5.6 54 54 ESE 9 15 30.21 1023 10 16.0934 N/A
7:51 am 07:51 Sunny 61 16.1 42 5.6 50 50 ESE 9 15 30.24 1024 10 16.0934 N/A
8:51 am 08:51 Sunny 64 17.8 42 5.6 45 45 ESE 10 17 30.25 1024 10 16.0934 N/A
9:51 am 09:51 Sunny 69 20.6 43 6.1 39 39 ESE 8 13 30.25 1024 10 16.0934 N/A
10:51 am 10:51 Sunny 72 22.2 42 5.6 34 34 ESE 12 19 30.23 1024 10 16.0934 N/A
11:51 am 11:51 Sunny 74 23.3 38 3.3 27 27 SSE 13 20 30.19 1023 10 16.0934 N/A
12:51 pm 12:51 Sunny 76 24.4 39 3.9 26 26 SSE 14 22 30.16 1021 10 16.0934 N/A
1:51 pm 13:51 Sunny 77 25 39 3.9 26 26 SSE 20 31 30.13 1020 10 16.0934 N/A
2:51 pm 14:51 Sunny 76 24.4 38 3.3 25 25 SSE 17 28 30.13 1020 10 16.0934 N/A
3:51 pm 15:51 Sunny 75 23.9 38 3.3 26 26 SSE 15 24 30.13 1020 10 16.0934 N/A
4:51 pm 16:51 Sunny 73 22.8 38 3.3 28 28 SE 13 20 30.12 1020 10 16.0934 N/A
5:51 pm 17:51 Clear 67 19.4 40 4.4 37 37 ESE 7 11 30.14 1021 10 16.0934 N/A
6:51 pm 18:51 Clear 66 18.9 39 3.9 37 37 ESE 8 13 30.17 1022 10 16.0934 N/A
7:51 pm 19:51 Clear 64 17.8 40 4.4 41 41 E 8 13 30.18 1022 10 16.0934 N/A
8:51 pm 20:51 Clear 62 16.7 40 4.4 44 44 E 7 11 30.19 1022 10 16.0934 N/A
9:51 pm 21:51 Clear 58 14.4 42 5.6 56 56 SSE 6 9 30.2 1023 10 16.0934 N/A
10:51 pm 22:51 Clear 57 13.9 40 4.4 53 53 S 5 7 30.21 1023 10 16.0934 N/A
11:51 pm 23:51 Clear 58 14.4 41 5 53 53 ESE 5 7 30.21 1023 10 16.0934 N/A

Powered by AerisWeather